Location: Unspecified
(0.0000°N, 0.0000°E)
Time: 08:35:59
(UTC+00:00)

deb r/b Ablestar - Pass Details

Date: 16 February 2026
Orbit: 888 x 1147 km, 67.2° (Epoch: 14 March)

Event Time Altitude Azimuth Distance (km) Brightness Sun altitude
Exits shadow 04:46:14 20° 333° (NNW) 2,338 ? -21.4°
Maximum altitude 04:51:28 74° 251° (WSW) 1,181 ? -20.2°
Drops below altitude 10° 04:58:44 10° 167° (SSE) 3,039 ? -18.4°
Sets 05:01:27 0° 165° (SSE) 3,996 ? -17.7°
